Torna al catalogo

STARLINK-34075

AttivoComunicazioniVLEO
NORAD 63917·PAYLOAD·🇺🇸 United States

Lanciato May 10, 2025 da Cape Canaveral Space Force Station

Loading…

Prossimi Passaggi (prossime 24 ore)

TLE

AggiornatoSource: CelesTrak SupGP

Epoca: Sep 15, 2026, 03:33 UTC

1 63917C 25095AD  26258.14840278 -.00027201  00000+0 -98554-3 0  2589
2 63917  43.0020 186.0443 0001370 275.6388 150.0439 15.27581697    17

Traccia STARLINK-34075 in tempo reale con AllMySat

Download on the App Store